Find Starlink 34032

NORAD ID: 63853 Int'l Des: 2025-093 Owner: SPXS Country: US Constellation: starlink operational
LEOCIRCULAR

現在のビュー

3D地球を読み込み中...

About Starlink 34032

Starlink 34032 (NORAD 63853) is a starlink constellation satellite (v2 mini) launched May 7, 2025 by SPXS of US. It operates in LEO, CIRCULAR orbit with a mass of 575.00 kg.

Starlink 34032について

説明を読み込み中...

次回通過

Passes for default location (London). Set your location on the main map for personalized predictions.

高度履歴

Loading altitude history...

軌道要素

1 63853U 25093T 26194.09820014 .00010659 00000-0 39615-3 0 9998
2 63853 43.0023 89.4836 0001567 265.3081 94.7592 15.27591776 67156
Epoch: Jul 13, 2026 • Age: 23 hours

現在のステータス

高度 488.7 km
遠地点 / 近地点 N/A
速度 7.62 km/s
衛星直下点 -25.80°S, 95.15°E
打ち上げ日 May 7, 2025
運用期間 1.1 years
タイプ internet

技術仕様

分類 Payload
質量 575.00 kg
乾燥質量 530.00 kg
総質量 575.00 kg
長さ 0.30 m
直径 4.10 m
スパン 29.00 m
形状 Box + pan
製造者 SPXS
バスタイプ Starlink V2MO
フェーズステータス In Orbit
所有者/国 SPXS/US

Most Searched